Weather History for Teterboro, NJ

Change the Weather History Date:

Monday, March 10, 2014

  Actual Average Record
Temperature  
Mean Temperature 43 °F -  
Max Temperature 52 °F 44 °F 75 °F (2006)
Min Temperature 35 °F 28 °F 18 °F (2003)
Degree Days  
Heating Degree Days 22    
Moisture  
Dew Point 25 °F    
Average Humidity 51    
Maximum Humidity 76    
Minimum Humidity 39    
Precipitation  
Precipitation 0.00 in - - ()
Sea Level Pressure  
Sea Level Pressure 29.78 in    
Wind  
Wind Speed 7 mph (SW)    
Max Wind Speed 13 mph    
Max Gust Speed -    
Visibility 9 miles    
Events Snow    
Averages and records for this station are not official NWS values.
T = Trace of Precipitation, MM = Missing Value Source: NWS Daily Summary

Daily Weather History Graph

Daily Weather History Graph

Search for Another Location

Airport:

Trip Planner

Search our weather history database for the weather conditions in past years. The results will help you decide how hot, cold, wet, or windy it might be!

Date:

Astronomy

Mar. 10, 2014 Rise Set
Actual Time 7:16 AM EDT 6:57 PM EDT
Civil Twilight 6:48 AM EDT 7:24 PM EDT
Nautical Twilight 6:17 AM EDT 7:56 PM EDT
Astronomical Twilight 5:45 AM EDT 8:28 PM EDT
Moon 1:37 PM EDT (3/10) 3:27 AM EDT (3/10)
Length of Visible Light 12h 36m
Length of Day
11h 41m
Waxing Gibbous, 70% of the Moon is Illuminated
Mar 10
Waxing Gibbous
Mar 16
Full
Mar 23
Last Quarter
Mar 30
New
Apr 7
First Quarter

Hourly Weather History & Observations

Time (EDT) Temp. Windchill Dew Point Humidity Pressure Visibility Wind Dir Wind Speed Gust Speed Precip Events Conditions
12:51 AM 39.0 °F 34.0 °F 16.0 °F 39% 29.92 in 10.0 mi SW 6.9 mph - N/A   Clear
1:51 AM 37.9 °F 32.7 °F 17.1 °F 43% 29.90 in 10.0 mi SW 6.9 mph - N/A   Scattered Clouds
2:51 AM 39.0 °F 32.8 °F 18.0 °F 43% 29.87 in 10.0 mi SSW 9.2 mph - N/A   Overcast
3:51 AM 37.9 °F 33.5 °F 19.0 °F 47% 29.85 in 10.0 mi SSW 5.8 mph - N/A   Overcast
4:51 AM 39.0 °F 34.0 °F 18.0 °F 43% 29.84 in 10.0 mi SW 6.9 mph - N/A   Overcast
5:51 AM 39.9 °F - 18.0 °F 41% 29.84 in 10.0 mi Calm Calm - N/A   Overcast
6:51 AM 39.0 °F 33.4 °F 19.9 °F 46% 29.83 in 10.0 mi SSW 8.1 mph - N/A   Overcast
7:51 AM 39.0 °F 32.8 °F 19.9 °F 46% 29.84 in 10.0 mi SSW 9.2 mph - N/A   Overcast
8:34 AM 37.4 °F 30.8 °F 26.6 °F 65% 29.86 in 4.0 mi West 9.2 mph - 0.00 in Snow Light Snow
8:42 AM 37.4 °F 31.4 °F 26.6 °F 65% 29.86 in 1.0 mi WSW 8.1 mph - 0.00 in Snow Light Snow
8:49 AM 35.6 °F 29.9 °F 28.4 °F 75% 29.85 in 3.0 mi SW 6.9 mph - 0.00 in Snow Light Snow
8:51 AM 36.0 °F 32.1 °F 28.9 °F 76% 29.85 in 4.0 mi SW 4.6 mph - 0.00 in Snow Light Snow
9:01 AM 35.6 °F 30.7 °F 28.4 °F 75% 29.85 in 10.0 mi SW 5.8 mph - 0.00 in   Overcast
9:51 AM 39.0 °F 33.4 °F 28.9 °F 67% 29.85 in 10.0 mi SW 8.1 mph - 0.00 in   Mostly Cloudy
10:51 AM 43.0 °F 37.7 °F 25.0 °F 49% 29.82 in 10.0 mi SW 9.2 mph - N/A   Mostly Cloudy
11:51 AM 45.0 °F 39.3 °F 23.0 °F 42% 29.81 in 10.0 mi WSW 11.5 mph - N/A   Overcast
12:51 PM 46.0 °F 40.6 °F 24.1 °F 42% 29.79 in 10.0 mi West 11.5 mph - N/A   Overcast
1:51 PM 48.0 °F - 25.0 °F 41% 29.75 in 10.0 mi SSW 12.7 mph - N/A   Overcast
2:51 PM 48.0 °F - 26.1 °F 42% 29.72 in 10.0 mi SW 6.9 mph - N/A   Overcast
3:51 PM 50.0 °F - 28.0 °F 43% 29.71 in 10.0 mi WSW 11.5 mph - N/A   Scattered Clouds
4:51 PM 51.1 °F - 28.0 °F 41% 29.68 in 10.0 mi WSW 10.4 mph - N/A   Clear
5:51 PM 51.1 °F - 27.0 °F 39% 29.66 in 10.0 mi SW 8.1 mph - N/A   Clear
6:51 PM 48.9 °F - 27.0 °F 43% 29.68 in 10.0 mi Calm Calm - N/A   Mostly Cloudy
7:51 PM 48.9 °F - 27.0 °F 43% 29.68 in 10.0 mi Calm Calm - N/A   Overcast
8:51 PM 45.0 °F 42.6 °F 30.0 °F 56% 29.67 in 10.0 mi SSW 4.6 mph - N/A   Overcast
9:51 PM 44.1 °F 41.5 °F 30.9 °F 60% 29.66 in 10.0 mi SSW 4.6 mph - N/A   Overcast
10:51 PM 43.0 °F 41.3 °F 30.9 °F 62% 29.65 in 10.0 mi SSW 3.5 mph - N/A   Overcast
11:51 PM 43.0 °F 41.3 °F 32.0 °F 65% 29.61 in 9.0 mi SSW 3.5 mph - N/A   Overcast